Weather History for KW22 - November, 2012

Change the Weather History Date:

Saturday, November 24, 2012

  Actual Average (KEKN) Record (KEKN)
Temperature  
Mean Temperature 30 °F 39 °F  
Max Temperature 32 °F 50 °F 71 °F (1973)
Min Temperature 28 °F 29 °F 3 °F (1956)
Degree Days  
Heating Degree Days 35 26  
Month to date heating degree days 532  
Since 1 July heating degree days 1123  
Cooling Degree Days 0 0  
Month to date cooling degree days 0  
Year to date cooling degree days 475  
Moisture  
Dew Point 22 °F    
Average Humidity 75    
Maximum Humidity 93    
Minimum Humidity 60    
Precipitation  
Precipitation 0.37 in 0.11 in 1.25 in (1980)
Month to date precipitation 2.67  
Year to date precipitation 41.96  
Snow  
Snow 0.00 in - - ()
Month to date snowfall  
Since 1 September snowfall  
Snow Depth -    
Sea Level Pressure  
Sea Level Pressure 30.08 in    
Wind  
Wind Speed 9 mph (WSW)    
Max Wind Speed 15 mph    
Max Gust Speed 20 mph    
Visibility 8 miles    
Events Snow    
T = Trace of Precipitation, MM = Missing Value Source: NWS Daily Summary

Daily Weather History Graph

Daily Weather History Graph

Search for Another Location

Airport or City:

Trip Planner

Search our weather history database for the weather conditions in past years. The results will help you decide how hot, cold, wet, or windy it might be!

Date:

Astronomy

Nov. 24, 2012 Rise Set
Actual Time 7:14 AM EST 5:01 PM EST
Civil Twilight 6:45 AM EST 5:30 PM EST
Nautical Twilight 6:12 AM EST 6:03 PM EST
Astronomical Twilight 5:40 AM EST 6:35 PM EST
Moon 2:44 PM EST (11/24) 3:31 AM EST (11/24)
Length of Visible Light 10h 45m
Length of Day
9h 47m
Waxing Gibbous, 87% of the Moon is Illuminated
Nov 24
Waxing Gibbous
Nov 28
Full
Dec 6
Last Quarter
Dec 13
New
Dec 20
First Quarter

Hourly Weather History & Observations

Time (EST) Temp. Windchill Dew Point Humidity Pressure Visibility Wind Dir Wind Speed Gust Speed Precip Events Conditions
12:15 AM 30.2 °F 21.9 °F 19.4 °F 64% 30.05 in 10.0 mi WNW 9.2 mph 18.4 mph N/A   Overcast
12:35 AM 30.2 °F 19.3 °F 19.4 °F 64% 30.05 in 10.0 mi West 15.0 mph 19.6 mph N/A   Overcast
12:55 AM 30.2 °F 22.6 °F 19.4 °F 64% 30.05 in 10.0 mi WNW 8.1 mph - N/A   Mostly Cloudy
1:15 AM 30.2 °F 22.6 °F 19.4 °F 64% 30.05 in 10.0 mi West 8.1 mph - N/A   Overcast
1:35 AM 30.2 °F 22.6 °F 19.4 °F 64% 30.05 in 10.0 mi West 8.1 mph - N/A   Overcast
1:55 AM 30.2 °F 21.9 °F 19.4 °F 64% 30.05 in 10.0 mi West 9.2 mph - N/A   Overcast
2:15 AM 30.2 °F 21.3 °F 17.6 °F 60% 30.05 in 10.0 mi West 10.4 mph - N/A   Overcast
2:35 AM 30.2 °F 22.6 °F 19.4 °F 64% 30.05 in 10.0 mi WSW 8.1 mph - N/A   Overcast
2:55 AM 30.2 °F 21.9 °F 19.4 °F 64% 30.05 in 10.0 mi SW 9.2 mph - N/A   Overcast
3:35 AM 30.2 °F 21.9 °F 19.4 °F 64% 30.05 in 10.0 mi West 9.2 mph - N/A   Overcast
3:55 AM 28.4 °F 19.1 °F 19.4 °F 69% 30.04 in 10.0 mi WSW 10.4 mph - N/A   Mostly Cloudy
4:15 AM 28.4 °F 19.1 °F 19.4 °F 69% 30.04 in 10.0 mi WSW 10.4 mph - N/A   Mostly Cloudy
4:35 AM 28.4 °F 18.5 °F 19.4 °F 69% 30.04 in 10.0 mi WSW 11.5 mph - N/A   Mostly Cloudy
4:55 AM 28.4 °F 19.7 °F 19.4 °F 69% 30.04 in 10.0 mi WSW 9.2 mph 16.1 mph N/A   Mostly Cloudy
5:15 AM 28.4 °F 19.1 °F 19.4 °F 69% 30.05 in 10.0 mi WSW 10.4 mph - N/A   Overcast
5:35 AM 28.4 °F 18.5 °F 19.4 °F 69% 30.06 in 10.0 mi West 11.5 mph - N/A   Overcast
5:55 AM 28.4 °F 18.0 °F 19.4 °F 69% 30.06 in 10.0 mi West 12.7 mph - N/A   Overcast
6:15 AM 28.4 °F 19.1 °F 19.4 °F 69% 30.06 in 10.0 mi WSW 10.4 mph 16.1 mph N/A   Overcast
6:35 AM 28.4 °F 19.1 °F 19.4 °F 69% 30.06 in 10.0 mi West 10.4 mph - N/A   Overcast
6:55 AM 28.4 °F 18.5 °F 19.4 °F 69% 30.07 in 10.0 mi WSW 11.5 mph - N/A   Mostly Cloudy
7:15 AM 28.4 °F 18.0 °F 19.4 °F 69% 30.07 in 10.0 mi WSW 12.7 mph 17.3 mph N/A   Overcast
7:35 AM 28.4 °F 21.2 °F 19.4 °F 69% 30.07 in 10.0 mi WSW 6.9 mph - N/A   Overcast
7:55 AM 28.4 °F 19.1 °F 21.2 °F 74% 30.08 in 8.0 mi WSW 10.4 mph - N/A   Mostly Cloudy
8:15 AM 28.4 °F 19.7 °F 21.2 °F 74% 30.08 in 10.0 mi WSW 9.2 mph - N/A   Overcast
8:35 AM 28.4 °F 21.2 °F 21.2 °F 74% 30.09 in 10.0 mi WSW 6.9 mph - N/A   Overcast
8:55 AM 28.4 °F 21.2 °F 21.2 °F 74% 30.09 in 10.0 mi West 6.9 mph - N/A   Overcast
9:15 AM 28.4 °F 20.4 °F 21.2 °F 74% 30.09 in 9.0 mi West 8.1 mph - N/A   Mostly Cloudy
9:35 AM 28.4 °F 19.1 °F 21.2 °F 74% 30.09 in 5.0 mi WSW 10.4 mph - N/A Snow Light Snow
9:55 AM 28.4 °F 19.1 °F 23.0 °F 80% 30.09 in 5.0 mi WSW 10.4 mph - 0.01 in Snow Light Snow
10:15 AM 28.4 °F 19.1 °F 23.0 °F 80% 30.10 in 3.0 mi WSW 10.4 mph 19.6 mph 0.01 in Snow Light Snow
10:35 AM 28.4 °F 20.4 °F 23.0 °F 80% 30.10 in 3.0 mi WSW 8.1 mph - 0.02 in Snow Light Snow
10:55 AM 28.4 °F 17.5 °F 23.0 °F 80% 30.10 in 4.0 mi WSW 13.8 mph - 0.03 in Snow Light Snow
11:15 AM 28.4 °F 20.4 °F 23.0 °F 80% 30.10 in 8.0 mi West 8.1 mph - N/A Snow Light Snow
11:35 AM 28.4 °F 19.1 °F 23.0 °F 80% 30.09 in 7.0 mi West 10.4 mph - 0.01 in Snow Light Snow
11:55 AM 30.2 °F 20.2 °F 23.0 °F 75% 30.08 in 5.0 mi WSW 12.7 mph - 0.01 in Snow Light Snow
12:15 PM 30.2 °F 20.2 °F 23.0 °F 75% 30.07 in 9.0 mi WSW 12.7 mph - N/A Snow Light Snow
12:35 PM 30.2 °F 22.6 °F 23.0 °F 75% 30.07 in 8.0 mi West 8.1 mph - N/A Snow Light Snow
12:55 PM 30.2 °F 21.3 °F 23.0 °F 75% 30.07 in 8.0 mi WSW 10.4 mph - N/A Snow Light Snow
1:15 PM 30.2 °F 21.3 °F 23.0 °F 75% 30.06 in 8.0 mi West 10.4 mph - N/A Snow Light Snow
1:35 PM 30.2 °F 21.9 °F 23.0 °F 75% 30.06 in 10.0 mi West 9.2 mph 19.6 mph N/A   Mostly Cloudy
1:55 PM 32.0 °F 23.0 °F 23.0 °F 69% 30.05 in 10.0 mi WSW 11.5 mph - N/A   Overcast
2:15 PM 30.2 °F 20.8 °F 21.2 °F 69% 30.05 in 7.0 mi West 11.5 mph 18.4 mph N/A   Mostly Cloudy
2:35 PM 30.2 °F 20.8 °F 23.0 °F 75% 30.06 in 8.0 mi West 11.5 mph 16.1 mph N/A Snow Light Snow
2:55 PM 30.2 °F 22.6 °F 23.0 °F 75% 30.06 in 5.0 mi West 8.1 mph - 0.03 in Snow Light Snow
3:15 PM 30.2 °F 22.6 °F 23.0 °F 75% 30.06 in 2.5 mi WNW 8.1 mph - 0.02 in Snow Light Snow
3:35 PM 30.2 °F 24.3 °F 24.8 °F 80% 30.07 in 2.0 mi WNW 5.8 mph - 0.06 in Snow Light Snow
3:55 PM 28.4 °F 18.5 °F 24.8 °F 86% 30.07 in 2.0 mi West 11.5 mph - 0.11 in Snow Light Snow
4:15 PM 28.4 °F 20.4 °F 26.6 °F 93% 30.08 in 2.5 mi WNW 8.1 mph - 0.03 in Snow Light Snow
4:35 PM 28.4 °F 24.6 °F 26.6 °F 93% 30.09 in 2.5 mi WNW 3.5 mph - 0.08 in Snow Light Snow
4:55 PM 28.4 °F 20.4 °F 26.6 °F 93% 30.09 in 2.0 mi WNW 8.1 mph - 0.13 in Snow Light Snow
5:15 PM 28.4 °F 22.2 °F 26.6 °F 93% 30.09 in 3.0 mi West 5.8 mph - 0.02 in Snow Light Snow
5:35 PM 28.4 °F 22.2 °F 26.6 °F 93% 30.10 in 5.0 mi West 5.8 mph - 0.03 in Snow Light Snow
5:55 PM 28.4 °F 21.2 °F 26.6 °F 93% 30.10 in 9.0 mi WSW 6.9 mph - 0.04 in   Mostly Cloudy
6:15 PM 28.4 °F 20.4 °F 24.8 °F 86% 30.10 in 10.0 mi WSW 8.1 mph - N/A   Mostly Cloudy
6:35 PM 28.4 °F 19.7 °F 23.0 °F 80% 30.10 in 5.0 mi West 9.2 mph - N/A Snow Light Snow
6:55 PM 28.4 °F 19.7 °F 23.0 °F 80% 30.10 in 6.0 mi WSW 9.2 mph - 0.01 in Snow Light Snow
7:15 PM 28.4 °F 19.7 °F 23.0 °F 80% 30.10 in 10.0 mi WSW 9.2 mph - N/A   Overcast
7:35 PM 28.4 °F 20.4 °F 23.0 °F 80% 30.10 in 10.0 mi SW 8.1 mph - N/A   Overcast
7:55 PM 28.4 °F 20.4 °F 23.0 °F 80% 30.10 in 10.0 mi SW 8.1 mph - N/A   Overcast
8:15 PM 28.4 °F 19.7 °F 23.0 °F 80% 30.10 in 10.0 mi WSW 9.2 mph - N/A   Overcast
8:35 PM 28.4 °F 19.7 °F 23.0 °F 80% 30.11 in 8.0 mi WSW 9.2 mph - N/A   Overcast
8:55 PM 28.4 °F 21.2 °F 23.0 °F 80% 30.11 in 9.0 mi SW 6.9 mph - N/A   Overcast
9:15 PM 28.4 °F 22.2 °F 23.0 °F 80% 30.10 in 7.0 mi SW 5.8 mph - N/A   Overcast
9:35 PM 28.4 °F 22.2 °F 23.0 °F 80% 30.10 in 10.0 mi SW 5.8 mph - N/A   Overcast
9:55 PM 28.4 °F 21.2 °F 23.0 °F 80% 30.10 in 10.0 mi WSW 6.9 mph - N/A   Overcast
10:15 PM 28.4 °F 22.2 °F 23.0 °F 80% 30.09 in 10.0 mi WSW 5.8 mph - N/A   Overcast
10:35 PM 28.4 °F 22.2 °F 21.2 °F 74% 30.09 in 10.0 mi SW 5.8 mph - N/A   Overcast
10:55 PM 28.4 °F 20.4 °F 21.2 °F 74% 30.09 in 10.0 mi SW 8.1 mph - N/A   Overcast
11:15 PM 28.4 °F 22.2 °F 21.2 °F 74% 30.08 in 10.0 mi SW 5.8 mph - N/A   Overcast
11:35 PM 28.4 °F 22.2 °F 21.2 °F 74% 30.08 in 10.0 mi SW 5.8 mph - N/A   Overcast
11:55 PM 28.4 °F 22.2 °F 21.2 °F 74% 30.08 in 10.0 mi WSW 5.8 mph - N/A   Overcast